Mattoon, IL

2:56 PM CST on November 21, 2019 (GMT -0600)
Coles County Memorial

Weather History for KMTO - September, 2019

Change the Weather History Date:

Friday, September 6, 2019

  Actual Average Record
Temperature  
Mean Temperature 71 °F 70 °F  
Max Temperature 83 °F 82 °F 100 °F (1954)
Min Temperature 59 °F 59 °F 43 °F (1988)
Degree Days  
Heating Degree Days 0 0  
Month to date heating degree days 0 0  
Since 1 July heating degree days 0 5  
Cooling Degree Days 6 6  
Month to date cooling degree days 32 39  
Year to date cooling degree days 1017 959  
Growing Degree Days 21 (Base 50)    
Moisture  
Dew Point 63 °F    
Average Humidity 75    
Maximum Humidity 90    
Minimum Humidity 60    
Precipitation  
Precipitation 0.00 in 0.12 in 1.12 in (1969)
Month to date precipitation 0.44 0.72  
Year to date precipitation 25.57 26.62  
Sea Level Pressure  
Sea Level Pressure 29.96 in    
Wind  
Wind Speed 11 mph (WNW)    
Max Wind Speed 21 mph    
Max Gust Speed 29 mph    
Visibility 10 miles    
Events      
T = Trace of Precipitation, MM = Missing Value Source: NWS Daily Summary

Daily Weather History Graph

Daily Weather History Graph

Search for Another Location

Airport or City:

Astronomy

Sep. 06, 2019 Rise Set
Actual Time 6:25 AM CDT 7:16 PM CDT
Civil Twilight 5:58 AM CDT 7:43 PM CDT
Nautical Twilight 5:26 AM CDT 8:16 PM CDT
Astronomical Twilight 4:52 AM CDT 8:49 PM CDT
Moon 2:31 PM CDT (9/6) No Moon Set
Length of Visible Light 13h 45m
Length of Day
12h 50m
First Quarter, 56% of the Moon is Illuminated
Sep 6
First Quarter
Sep 13
Full
Sep 21
Last Quarter
Sep 28
New
Oct 5
First Quarter

Hourly Weather History & Observations

Time (CDT) Temp. Heat Index Dew Point Humidity Pressure Visibility Wind Dir Wind Speed Gust Speed Precip Events Conditions
12:53 AM 60.1 °F - 57.0 °F 90% 30.01 in 10.0 mi SSE 5.8 mph - N/A   Clear
1:53 AM 63.0 °F - 57.9 °F 84% 30.00 in 10.0 mi South 4.6 mph - N/A   Clear
2:53 AM 63.0 °F - 57.9 °F 84% 29.99 in 10.0 mi South 5.8 mph - N/A   Clear
3:53 AM 63.0 °F - 57.9 °F 84% 29.96 in 10.0 mi South 8.1 mph - N/A   Clear
4:53 AM 64.0 °F - 57.9 °F 80% 29.95 in 10.0 mi South 8.1 mph - N/A   Overcast
5:53 AM 64.0 °F - 57.9 °F 80% 29.94 in 10.0 mi South 10.4 mph - N/A   Mostly Cloudy
6:53 AM 64.0 °F - 57.9 °F 80% 29.94 in 10.0 mi South 11.5 mph - N/A   Scattered Clouds
7:53 AM 66.0 °F - 60.1 °F 81% 29.94 in 10.0 mi SSW 12.7 mph 21.9 mph N/A   Clear
9:53 AM 75.0 °F - 64.9 °F 71% 29.92 in 10.0 mi WSW 11.5 mph 16.1 mph N/A   Clear
10:31 AM 77.0 °F - 68.0 °F 74% 29.93 in 10.0 mi West 9.2 mph - N/A   Mostly Cloudy
10:53 AM 77.0 °F - 68.0 °F 74% 29.92 in 10.0 mi West 11.5 mph - N/A   Overcast
11:53 AM 77.0 °F - 69.1 °F 76% 29.91 in 9.0 mi West 9.2 mph - N/A   Overcast
12:53 PM 79.0 °F - 71.1 °F 77% 29.91 in 10.0 mi WNW 10.4 mph - N/A   Overcast
1:35 PM 82.9 °F 87.5 °F 71.1 °F 67% 29.92 in 7.0 mi NW 13.8 mph - N/A   Scattered Clouds
1:53 PM 82.0 °F 85.5 °F 69.1 °F 65% 29.91 in 9.0 mi NW 16.1 mph - N/A   Partly Cloudy
2:53 PM 81.0 °F 83.8 °F 68.0 °F 65% 29.91 in 10.0 mi NW 19.6 mph 26.5 mph N/A   Partly Cloudy
3:53 PM 79.0 °F - 66.0 °F 64% 29.92 in 10.0 mi North 18.4 mph 27.6 mph N/A   Scattered Clouds
4:53 PM 77.0 °F - 63.0 °F 62% 29.94 in 10.0 mi NNW 15.0 mph 24.2 mph N/A   Mostly Cloudy
5:53 PM 73.0 °F - 61.0 °F 66% 29.96 in 10.0 mi NNW 11.5 mph - N/A   Scattered Clouds
6:53 PM 72.0 °F - 62.1 °F 71% 29.96 in 10.0 mi North 9.2 mph - N/A   Mostly Cloudy
7:53 PM 69.1 °F - 62.1 °F 78% 29.99 in 10.0 mi North 8.1 mph - N/A   Scattered Clouds
8:53 PM 66.0 °F - 61.0 °F 84% 30.00 in 10.0 mi North 8.1 mph - N/A   Partly Cloudy
9:53 PM 66.9 °F - 61.0 °F 81% 30.01 in 10.0 mi NNE 9.2 mph - N/A   Overcast
10:53 PM 64.9 °F - 60.1 °F 84% 30.02 in 10.0 mi North 8.1 mph - N/A   Overcast
11:53 PM 62.1 °F - 57.0 °F 84% 30.02 in 10.0 mi North 6.9 mph - N/A   Partly Cloudy